Date,TemperatureHighF,TemperatureAvgF,TemperatureLowF,DewpointHighF,DewpointAvgF,DewpointLowF,HumidityHigh,HumidityAvg,HumidityLow,PressureMaxIn,PressureMinIn,WindSpeedMaxMPH,WindSpeedAvgMPH,GustSpeedMaxMPH,PrecipitationSumIn
2013-1-1,73,27,4,30,14,-3,82,63,21,26.98,26.88,21,3,21,36.18
2013-1-2,47,28,22,30,19,-17,79,70,43,27.16,26.92,26,8,26,0.00
2013-1-3,60,26,5,26,12,-2,77,59,25,27.16,26.99,10,1,13,0.00
2013-1-4,75,28,9,28,10,0,70,54,17,26.99,26.91,4,0,4,0.00
2013-1-7,54,35,20,32,19,11,100,54,36,26.84,0.00,17,2,17,36.18
2013-1-8,70,38,24,40,24,-25,79,60,27,27.01,26.57,19,4,19,0.00
2013-1-9,78,41,18,39,23,12,81,53,23,27.01,26.73,21,4,21,35.54
2013-1-10,50,40,32,26,22,0,77,50,32,26.73,26.40,35,10,35,0.00
2013-1-11,32,19,9,27,12,-1,82,74,62,26.75,26.41,29,13,29,0.00
2013-1-12,16,11,8,6,2,-29,72,66,61,27.00,26.73,28,9,28,0.00
2013-1-13,51,14,0,19,1,-10,72,57,24,27.02,26.96,15,1,15,0.00
2013-1-14,64,15,-2,21,0,-12,69,53,18,27.04,26.92,10,1,10,0.00
2013-1-15,42,25,-2,30,13,-12,76,62,46,26.92,26.77,28,3,28,0.00
2013-1-16,66,43,28,29,23,-13,65,48,21,27.12,26.80,22,5,22,0.00
2013-1-17,78,38,20,37,22,13,77,55,22,27.20,26.90,16,2,16,0.00
2013-1-18,88,44,24,37,19,13,66,42,11,26.90,26.77,12,1,12,0.00
2013-1-19,63,38,22,27,20,15,76,51,24,27.11,26.81,23,6,23,0.00
2013-1-20,32,19,14,32,11,-31,100,70,55,27.24,26.94,23,6,23,0.00
2013-1-21,34,17,11,32,8,5,100,69,45,27.18,26.97,10,2,10,0.00
2013-1-23,32,12,11,32,7,6,100,81,79,27.09,0.00,19,11,19,0.00
2013-1-24,39,21,11,32,13,6,100,72,53,27.03,26.91,21,5,21,0.15
2013-1-25,65,37,17,35,21,11,78,55,27,26.99,26.88,13,2,13,0.00
2013-1-26,79,42,21,37,23,14,77,51,18,26.87,26.68,12,1,12,0.00
2013-1-27,63,37,27,35,26,19,84,67,34,26.70,26.58,22,4,22,0.00
2013-1-28,35,31,23,29,26,18,86,83,78,26.74,26.65,12,3,12,0.00
2013-1-29,80,30,8,34,17,0,84,63,17,26.92,26.63,22,6,22,0.00
2013-1-30,38,15,2,18,5,-6,80,66,41,26.90,26.71,24,2,24,0.00
2013-1-31,20,10,4,10,1,-4,79,66,47,27.11,26.80,26,8,26,0.00
2013-2-1,57,31,10,36,22,2,81,70,42,26.98,26.83,20,3,20,0.00
2013-2-2,70,41,24,32,23,15,75,51,21,27.08,26.97,33,7,33,0.00
2013-2-3,64,41,21,33,21,14,77,50,19,27.06,26.71,26,4,26,0.00
2013-2-4,66,38,21,35,22,13,76,55,27,26.83,26.68,22,2,22,0.00
2013-2-5,84,45,35,38,27,-31,65,51,17,26.89,26.68,16,3,16,0.00
2013-2-6,66,38,24,36,22,15,78,55,25,26.93,26.64,27,3,27,0.00
2013-2-7,83,42,21,33,20,-12,100,47,14,27.00,26.86,13,2,13,0.26
2013-2-8,64,36,22,31,20,-15,72,54,25,26.87,26.73,16,3,16,0.00
2013-2-9,53,31,20,31,21,14,85,68,41,26.76,26.61,21,6,21,0.00
2013-2-10,32,28,20,26,20,11,84,72,63,26.91,26.58,27,12,27,0.00
2013-2-11,70,26,6,28,11,-1,75,56,20,26.95,26.84,12,1,12,0.00
2013-2-12,75,35,14,32,17,5,72,49,18,26.87,26.78,22,3,22,0.00
2013-2-13,62,38,24,30,23,16,72,56,27,26.86,26.67,27,6,27,0.00
2013-2-14,38,28,13,22,16,5,70,60,47,27.15,26.86,29,9,29,0.00
2013-2-15,47,28,12,22,12,4,75,53,27,27.19,26.94,20,6,20,0.00
2013-2-16,68,43,28,31,23,13,66,47,24,26.94,26.71,24,5,24,0.00
2013-2-17,74,39,25,35,23,16,71,57,19,26.71,26.46,29,7,29,0.00
2013-2-18,44,30,14,24,16,-19,71,58,37,27.03,26.68,33,11,33,0.00
2013-2-19,29,17,12,15,8,4,79,67,52,27.06,26.89,22,8,22,0.00
2013-2-20,37,24,12,18,12,3,76,61,39,26.90,26.74,29,13,29,0.00
2013-2-21,33,24,17,24,17,12,82,77,67,26.87,26.80,20,5,20,0.00
2013-2-22,54,28,16,32,19,-9,81,68,40,26.85,26.67,15,2,15,0.00
2013-2-23,66,37,14,28,16,7,75,48,17,26.73,26.57,11,2,11,0.00
2013-2-24,38,32,18,29,24,12,82,72,63,26.98,26.72,50,7,50,0.00
2013-2-25,55,31,14,32,15,7,100,56,21,26.97,26.76,26,4,26,0.23
2013-2-27,51,35,19,32,18,10,100,50,36,27.10,27.04,22,6,22,0.23
2013-2-28,62,33,11,32,19,-29,75,58,27,27.09,27.01,12,2,12,0.23
2013-3-1,61,37,17,26,17,-15,82,49,17,27.14,27.02,19,3,19,0.23
2013-3-2,66,47,28,38,26,16,73,45,29,27.03,26.80,19,3,19,0.23
2013-3-3,65,47,34,33,28,23,73,50,29,26.79,26.47,28,5,28,0.00
2013-3-4,47,29,17,23,14,5,74,54,25,27.06,26.63,38,12,38,0.00
2013-3-5,45,26,10,19,10,2,75,54,32,27.20,27.06,17,5,21,0.23
2013-3-6,50,29,14,32,15,7,100,58,32,27.07,26.74,25,6,25,0.23
2013-3-7,0,0,0,0,0,0,100,100,100,0.00,40.00,0,0,0,0.00
2013-3-8,43,40,32,32,30,29,100,69,57,26.91,0.00,5,4,5,0.00
2013-3-14,85,67,32,38,32,26,100,28,17,27.05,26.85,18,2,18,0.46
2013-3-15,74,52,32,36,28,4,100,43,19,26.95,26.71,24,6,24,0.68
2013-3-16,36,30,24,28,24,21,87,76,60,26.98,26.82,15,6,15,0.00
2013-3-17,52,43,24,40,34,21,100,73,57,26.81,26.31,27,12,27,0.13
2013-3-20,55,44,32,32,19,11,100,39,26,27.05,26.78,30,14,30,0.39
2013-3-21,49,34,27,32,23,-45,100,66,38,26.77,26.57,21,8,21,0.11
2013-3-22,57,32,16,31,22,-22,84,69,32,26.95,26.73,22,4,22,0.00
2013-3-23,48,25,11,24,13,4,77,61,33,27.09,26.96,22,9,22,0.00
2013-3-24,32,8,4,32,1,-3,100,73,71,27.08,27.04,2,0,4,0.00
2013-3-26,46,31,18,32,18,10,100,62,37,26.94,0.00,10,1,10,0.19
2013-4-1,62,54,24,35,26,19,79,35,29,27.08,26.99,17,4,17,0.00
2013-4-2,67,54,23,34,26,14,73,34,23,27.05,26.96,15,4,15,0.00
2013-4-3,82,55,34,38,29,20,69,41,17,27.05,26.83,22,8,22,0.00
2013-4-4,59,46,31,33,24,17,74,46,30,27.06,26.91,21,5,21,0.00
2013-4-5,67,48,33,41,29,17,69,48,30,26.91,26.52,16,5,16,0.00
2013-4-6,74,58,41,44,34,28,80,46,23,26.73,26.64,25,6,25,0.00
2013-4-7,71,52,40,45,36,19,76,57,33,26.72,26.53,13,2,13,0.00
2013-4-8,45,33,17,40,28,13,87,80,70,27.04,26.55,26,3,26,0.00
2013-4-9,23,17,13,13,12,9,83,78,65,27.20,27.03,0,0,0,0.00
2013-4-10,42,27,17,23,17,11,84,68,46,27.12,26.83,21,5,21,0.00
2013-4-11,47,29,10,26,17,2,76,61,38,0.00,40.00,18,5,18,0.00
2013-4-12,49,38,26,35,29,20,79,69,58,26.87,26.81,20,6,20,0.00
2013-4-13,47,34,20,35,27,15,88,76,59,26.83,26.34,20,5,20,0.00
2013-4-14,49,35,23,34,26,-7,89,72,50,26.72,26.35,32,9,32,0.00
2013-4-15,46,32,21,25,19,13,76,58,40,26.99,26.69,24,10,24,0.00
2013-4-16,37,29,22,26,22,-17,82,73,63,27.12,26.96,13,3,13,0.00
2013-4-17,44,31,26,28,24,22,86,76,52,27.12,27.03,18,6,18,0.00
2013-4-18,48,32,22,25,20,14,84,63,38,27.04,26.88,24,8,24,0.00
2013-4-19,50,37,23,34,29,15,85,75,52,26.92,26.84,17,5,17,0.00
2013-4-20,60,43,29,39,33,25,85,69,46,26.86,26.78,14,5,14,0.00
2013-4-21,53,42,33,42,35,-27,86,75,62,27.02,26.81,25,5,25,0.00
2013-4-22,46,32,18,30,22,-4,89,69,45,27.23,26.98,19,3,19,0.00
2013-4-23,59,34,8,27,16,1,80,53,24,27.22,26.96,10,1,10,0.00
2013-4-24,53,38,25,33,24,4,72,57,41,27.01,26.91,24,6,24,0.00
2013-4-25,78,53,31,40,29,22,78,46,17,26.97,26.72,18,3,18,0.00
2013-4-26,82,58,32,40,31,24,70,41,18,27.02,26.86,14,1,14,0.00
2013-4-27,85,64,38,43,34,27,66,38,16,26.99,26.74,20,3,20,0.00
2013-4-28,74,59,46,43,37,4,81,47,28,26.87,26.68,27,7,27,0.00
2013-4-29,79,59,42,46,40,34,87,56,21,26.82,26.33,37,10,37,0.00
2013-4-30,59,45,36,37,28,-35,73,51,31,27.07,26.57,21,8,21,0.00
2013-5-1,56,41,27,24,19,12,60,43,22,27.42,27.05,26,6,26,0.00
2013-5-2,64,45,22,32,20,12,69,40,21,27.45,27.22,13,1,13,0.00
2013-5-3,35,33,32,19,19,18,57,54,51,27.22,27.20,0,0,0,0.00
2013-5-6,77,71,63,38,32,-26,39,23,20,27.00,26.88,19,5,19,0.00
2013-8-27,0,0,0,0,0,0,100,100,100,26.91,26.78,14,6,14,0.00
2013-8-28,0,0,0,0,0,0,100,100,100,26.95,26.89,12,2,12,0.00
2013-9-3,32,32,32,32,31,0,100,100,100,26.94,0.00,4,0,4,0.00
2013-9-4,32,26,0,32,26,0,100,100,100,27.02,26.93,10,2,10,0.00
2013-9-5,32,3,0,32,3,0,100,100,100,27.04,26.88,0,0,0,0.00
2013-9-6,32,27,0,32,27,0,100,100,100,26.93,26.84,0,0,0,0.00
2013-9-7,32,30,0,32,29,0,100,100,100,26.95,26.86,0,0,0,0.00
2013-9-8,32,14,0,32,14,0,100,100,100,26.74,26.74,0,0,0,0.00
2013-9-9,32,9,0,32,9,0,100,100,100,26.91,26.71,0,0,0,0.00
2013-9-10,32,26,0,32,26,0,100,100,100,27.04,26.89,0,0,0,0.00
2013-9-11,32,16,0,32,16,0,100,100,100,27.13,27.04,0,0,0,0.00
2013-9-12,32,32,0,32,27,-37,100,91,15,27.21,27.10,0,0,0,0.00
2013-9-13,32,28,0,-10,-14,-37,15,15,15,27.11,26.82,0,0,0,0.00
2013-9-14,32,16,0,20,-11,-37,60,34,15,26.97,26.74,0,0,0,0.00
2013-9-15,32,14,0,20,-17,-37,60,27,15,27.17,26.97,0,0,0,0.00
2013-9-16,32,0,0,-10,-36,-37,15,15,15,27.12,26.82,0,0,0,0.00
2013-9-17,32,8,0,-10,-30,-37,15,15,15,26.83,26.75,0,0,0,0.00
2013-9-18,0,0,0,0,0,0,100,100,100,26.79,26.55,0,0,0,0.00
2013-9-19,0,0,0,0,0,0,100,100,100,27.04,26.79,0,0,0,0.00
2013-9-20,0,0,0,0,0,0,100,100,100,27.04,27.01,0,0,0,0.00
2013-9-22,0,0,0,0,0,0,100,100,100,0.00,40.00,0,0,0,0.00
2013-9-23,0,0,0,0,-7,-37,100,84,15,26.85,26.55,0,0,0,0.00
2013-9-24,0,0,0,-37,-37,-37,15,15,15,26.92,26.71,0,0,0,0.00
2013-9-25,0,-8,-20,-37,-43,-53,15,15,15,26.70,26.60,0,0,0,0.00
2013-9-26,56,24,0,40,17,0,100,81,54,26.82,26.71,19,4,19,0.00
2013-9-27,51,47,44,40,38,-4,82,74,62,26.87,26.78,20,6,20,0.00
2013-9-28,80,57,44,48,37,-4,82,53,26,26.86,26.81,17,3,17,0.00
2013-9-29,85,64,39,49,38,26,80,44,20,26.83,26.60,22,3,22,0.00
2013-9-30,88,66,48,49,40,31,64,42,19,26.75,26.48,25,6,25,0.00
2013-10-1,83,61,37,42,33,11,66,37,20,26.93,26.74,29,5,29,0.00
2013-10-2,67,58,49,39,35,31,59,43,32,26.92,26.71,26,8,26,0.00
2013-10-3,53,49,45,44,40,-19,85,72,56,26.98,26.84,23,6,23,0.00
2013-10-4,99,45,-20,98,41,-57,99,87,12,27.00,26.92,25,8,25,0.00
2013-10-7,65,54,32,46,40,32,100,59,48,26.77,0.01,12,3,12,0.00
2013-10-8,69,53,40,41,35,30,70,51,34,26.78,26.58,14,3,14,0.00
2013-10-9,64,53,32,37,34,31,100,51,35,26.95,26.86,11,3,11,0.38
2013-10-10,41,39,37,32,32,31,78,75,71,26.86,26.80,6,0,6,0.00
2013-10-12,67,51,32,36,33,2,100,54,30,27.12,27.01,8,2,8,0.00
2013-10-13,42,38,34,34,31,5,82,77,74,27.11,27.07,7,0,7,0.00
2013-10-14,0,0,0,0,0,0,100,100,100,27.00,26.90,20,9,20,0.00
2013-10-15,99,28,-20,94,24,-24,100,87,30,27.13,26.99,22,8,22,0.00
2013-10-16,73,46,35,38,30,-5,78,59,24,27.03,26.83,12,2,12,0.00
2013-10-17,48,40,32,35,29,-6,77,66,46,27.04,26.88,20,6,20,0.00
2013-10-18,48,38,31,36,29,-7,81,70,12,27.01,26.82,20,4,20,0.00
2013-10-19,74,51,35,43,34,-29,79,54,26,26.82,26.71,15,2,15,0.00
2013-10-20,52,45,40,39,35,-4,81,71,50,26.95,26.72,20,6,20,0.00
2013-10-21,59,46,40,44,16,-40,79,39,12,26.95,26.83,20,4,20,0.00
2013-10-22,56,48,42,43,38,-4,82,70,50,26.99,26.89,17,4,17,0.00
2013-10-23,51,44,35,41,37,-3,85,75,67,27.15,26.88,21,6,21,0.00
2013-10-24,71,42,34,45,34,-3,86,75,37,27.18,27.07,13,3,13,0.00
2013-10-25,92,53,31,51,38,-20,86,60,21,27.08,26.92,20,4,20,0.00
2013-10-26,76,49,32,41,32,25,76,54,28,27.16,26.86,16,3,16,0.00
2013-10-27,79,50,34,46,34,26,75,56,23,27.05,26.75,22,4,22,0.00
2013-10-28,37,29,27,28,25,-19,88,83,70,27.19,27.04,20,6,20,0.00
2013-10-29,29,28,28,26,24,-19,89,89,88,27.12,26.86,2,0,2,0.00
2013-10-30,99,33,-20,98,18,-56,99,66,13,26.86,26.65,6,0,6,0.00
2013-10-31,99,44,-20,94,32,-38,99,69,14,26.67,26.58,22,4,22,0.00
2013-11-1,60,44,28,37,29,-5,80,57,31,27.01,26.67,36,8,36,0.00
2013-11-2,67,45,27,38,28,20,77,55,30,27.01,26.51,30,7,30,0.00
2013-11-3,53,45,38,36,31,27,71,57,43,26.75,26.47,26,5,26,0.00
2013-11-4,77,42,28,37,26,-28,77,56,21,27.00,26.75,12,2,12,0.00
2013-11-5,41,30,19,30,24,-3,86,79,62,27.04,26.96,15,3,15,0.00
2013-11-6,78,33,16,42,23,11,83,70,27,27.17,26.94,10,1,10,0.00
2013-11-7,69,38,21,42,28,17,85,69,35,27.19,26.71,21,4,21,0.00
2013-11-8,67,46,35,40,29,24,81,54,26,26.87,26.55,22,6,22,0.00
2013-11-9,65,40,28,38,27,20,76,61,35,27.17,26.87,23,4,23,0.00
2013-11-10,82,46,30,43,30,-31,82,57,22,27.13,26.96,20,4,20,0.00
2013-11-11,30,23,18,25,15,12,82,73,60,27.46,27.12,54,5,54,0.00
2013-11-12,66,35,13,37,23,-22,84,66,29,27.43,27.02,14,2,14,0.00
2013-11-13,83,46,24,44,30,18,82,59,21,27.03,26.88,16,2,16,0.00
2013-11-14,78,48,32,43,30,-5,79,55,23,26.93,26.69,14,2,14,0.00
2013-11-15,77,40,26,42,27,20,80,63,27,26.69,26.33,10,1,10,0.00
2013-11-16,52,36,24,36,26,-2,83,70,12,26.36,26.26,10,1,10,0.00
2013-11-17,54,36,24,31,22,-31,83,59,31,26.92,26.35,24,5,24,0.00
2013-11-18,63,41,23,33,22,-6,71,51,25,26.95,26.74,14,4,14,0.00
2013-11-19,66,43,30,41,28,22,100,58,31,26.74,26.49,17,1,17,0.49
2013-11-20,38,27,14,30,20,-28,84,76,69,27.16,26.61,29,8,29,0.00
2013-11-21,142,15,6,10,5,-1,73,65,52,27.41,27.15,22,6,22,0.00
2013-11-22,67,26,5,23,7,-2,74,50,16,27.46,27.27,25,4,25,0.00
2013-11-23,42,25,12,20,13,-19,82,60,41,27.46,27.11,21,6,21,0.00
2013-11-24,57,40,26,29,20,-2,63,46,12,27.11,26.81,22,6,22,0.00
2013-11-25,48,37,32,27,19,14,64,49,33,27.16,26.96,21,6,21,0.00
2013-11-26,56,30,22,28,17,-29,76,60,31,27.30,27.05,18,5,18,0.00
2013-11-27,81,36,19,42,22,13,78,59,20,27.06,26.82,22,5,22,0.00
2013-11-28,30,24,18,23,19,11,87,81,71,27.16,26.94,14,4,14,0.00
2013-11-29,84,39,19,43,23,15,85,58,20,26.94,26.88,11,1,11,0.00
2013-11-30,53,36,22,34,23,-3,77,61,43,27.02,26.92,13,1,13,0.00
2013-12-1,80,43,29,43,28,-10,76,57,24,26.97,26.60,15,1,15,0.00
2013-12-2,63,40,27,39,30,3,87,69,38,26.60,26.46,17,3,17,0.00
2013-12-3,31,19,9,27,14,5,86,81,74,26.81,26.52,22,10,22,0.00
2013-12-4,12,7,2,5,0,-8,82,72,64,27.01,26.76,30,12,30,0.00
2013-12-5,47,5,-11,14,-8,-19,75,57,22,27.18,26.99,14,3,14,0.00
2013-12-6,28,-2,-13,5,-15,-21,72,56,27,27.32,27.17,12,2,12,0.00
2013-12-7,14,-4,-12,-2,-14,-21,70,62,43,27.30,26.92,10,2,10,0.00
2013-12-8,34,5,-6,7,-8,-15,70,57,28,26.97,26.81,10,2,10,0.00
2013-12-9,44,12,-14,32,-1,-28,100,60,25,26.97,26.71,26,5,26,0.00
2013-12-10,40,18,0,26,11,-6,83,75,50,27.20,26.80,22,6,22,0.00
2013-12-11,33,6,-2,16,0,-8,80,75,47,27.21,27.14,13,2,13,0.00
2013-12-12,32,24,22,32,16,-26,100,69,59,26.91,26.77,5,0,5,0.00
2013-12-13,34,21,15,24,14,8,80,75,62,26.99,26.75,10,2,10,0.00
2013-12-14,70,31,11,36,20,6,83,67,28,27.03,26.89,6,0,6,0.00
2013-12-15,60,41,29,35,27,-17,72,59,12,26.90,26.78,11,1,11,0.00
2013-12-16,62,34,22,38,25,17,83,69,36,27.04,26.80,12,2,12,0.00
2013-12-17,49,34,22,30,24,17,86,68,47,27.12,26.71,31,5,31,0.00
2013-12-18,83,41,28,42,25,20,82,58,20,26.77,26.63,17,2,17,0.00
2013-12-19,29,15,-2,25,10,-11,88,81,74,26.95,26.75,54,1,54,0.00
2013-12-20,32,-4,-9,32,-9,-15,100,77,74,26.91,26.76,0,0,0,0.00
2014-1-1,30,25,24,21,19,18,83,78,69,27.14,27.04,20,5,20,0.00
2014-1-2,60,29,16,34,20,11,100,70,35,27.09,26.71,21,2,21,0.00